Wind_Speed
6 7 7 7 6 6 6 6 7 7 6 6 6 7 7 7 8 8 8 8 8 8 8 8 9 10 11 11 11 11 12 14 14 14 14 15 15 16 16 17 17 17 17
7 7 7 7 7 7 7 7 7 8 7 7 7 8 8 8 8 9 9 9 9 9 9 9 10 10 10 10 11 11 12 13 14 15 15 15 16 17 17 18 18 18 18
7 7 7 7 7 7 7 8 8 8 8 8 8 9 9 9 9 9 9 10 10 10 10 11 11 10 10 10 11 12 12 12 14 15 16 16 17 17 18 19 19 19 19
7 7 8 7 7 7 8 8 8 9 8 8 9 9 9 10 11 11 11 12 12 12 12 11 11 11 11 11 11 12 12 13 14 15 16 16 16 17 18 19 19 19 19
7 8 9 8 8 8 9 9 9 9 9 9 9 9 10 10 11 12 12 13 13 12 12 12 12 12 12 12 12 11 12 14 14 15 16 16 17 17 18 19 19 20 20
8 9 10 9 9 9 9 10 10 9 9 9 9 10 10 11 12 12 13 13 13 13 12 12 13 13 13 12 13 13 13 14 14 15 16 17 17 18 18 19 19 21 21
9 9 10 10 10 9 9 10 10 10 10 9 10 11 11 11 12 12 13 13 13 13 13 13 14 14 14 13 13 13 14 14 14 15 16 18 18 18 18 19 20 21 22
9 9 9 10 10 10 10 10 11 10 10 10 10 11 11 12 12 13 13 13 14 14 14 15 15 15 15 14 14 14 14 15 15 16 17 18 18 18 18 19 20 20 21
10 10 11 11 10 10 11 11 11 11 11 11 11 12 12 12 13 13 14 14 14 15 15 15 16 15 15 16 15 14 14 15 16 16 16 16 16 17 18 18 19 20 21
11 11 11 11 10 11 11 11 11 11 12 12 12 13 13 13 13 14 14 14 15 15 15 16 16 15 15 15 15 15 15 16 17 17 16 16 16 16 16 17 18 18 20
11 11 11 11 11 11 11 12 12 12 13 13 13 13 13 13 14 14 15 15 15 15 16 15 15 15 15 15 15 15 16 16 17 17 16 16 16 15 15 16 17 17 18
11 11 11 11 11 12 12 12 13 13 13 13 13 13 13 13 13 14 15 16 16 16 16 15 16 16 16 16 16 16 16 16 16 16 16 17 16 17 17 17 17 17 18
13 12 12 12 12 12 12 12 13 13 14 14 14 14 14 14 15 15 16 16 17 16 16 16 16 16 16 16 16 17 17 17 17 17 17 17 17 17 18 18 18 19 19
14 13 13 13 13 13 13 14 14 14 14 15 15 15 15 16 16 16 17 17 17 17 16 17 17 17 17 17 17 18 18 18 18 18 18 18 18 17 18 18 19 20 20
14 14 15 15 14 14 15 15 16 16 16 17 17 17 17 17 17 17 18 18 18 18 17 17 18 18 18 18 18 19 19 19 19 19 18 18 19 19 19 19 19 20 21
16 16 17 16 16 16 16 17 17 17 17 18 18 18 18 19 18 18 19 19 19 19 19 18 18 18 19 19 19 20 20 20 20 19 19 19 20 20 19 20 21 22 22
18 18 18 17 18 18 18 18 18 18 19 19 19 19 20 20 20 20 19 19 20 20 20 20 20 20 20 19 20 21 21 21 21 20 20 20 21 21 21 21 22 23 23
19 19 19 19 19 20 20 20 20 20 21 21 21 21 21 21 21 21 21 20 21 21 21 21 21 22 21 21 21 21 22 22 22 22 21 21 22 23 23 24 24 23 23
20 20 20 20 20 20 21 21 22 22 22 23 23 23 23 22 22 22 22 22 22 23 23 22 23 23 23 23 22 22 23 23 23 23 22 22 22 23 23 23 23 24 24
21 21 21 21 21 22 22 23 23 23 24 24 24 24 23 23 22 23 23 23 23 24 24 24 25 25 25 24 23 24 24 23 23 23 23 23 23 23 23 23 23 23 24
23 23 23 22 23 23 24 23 24 25 25 25 25 25 24 24 24 24 24 24 25 25 26 26 26 26 26 25 25 24 24 24 24 24 24 24 23 23 23 24 24 24 24
24 24 24 24 24 24 24 25 25 26 27 27 26 25 25 25 25 25 26 26 27 27 27 27 27 27 26 26 26 26 26 25 25 25 24 24 24 24 24 24 24 24 24
25 25 24 25 25 26 26 26 26 27 28 27 26 25 25 26 26 27 27 27 28 28 28 27 27 27 26 25 25 26 26 26 25 25 25 25 25 24 25 25 25 25 25
26 25 25 25 26 27 27 27 27 27 26 26 26 25 25 26 27 28 28 28 28 28 28 28 28 28 27 26 25 25 26 26 26 25 25 25 25 25 24 24 25 25 25
26 26 26 27 27 27 27 28 27 26 26 26 26 26 26 26 27 27 28 28 28 28 28 28 28 28 28 26 26 26 26 27 27 26 25 25 26 25 25 24 24 25 25
27 27 27 28 27 27 27 27 27 26 26 26 27 27 27 27 28 29 29 28 28 28 28 28 28 28 27 27 27 27 27 26 26 27 26 26 25 24 23 23 24 24 24
Wind_Direction
346 350 355 353 349 347 346 345 344 342 342 342 340 336 333 330 328 326 324 322 316 312 306 298 289 283 280 277 274 267 263 262 262 261 262 259 257 256 256 254 252 252 254
344 345 344 343 342 342 341 341 341 339 338 339 339 334 330 329 327 327 326 325 322 315 310 303 301 290 281 277 273 271 268 264 259 261 264 263 261 259 257 255 254 254 254
346 348 343 345 341 341 343 342 341 340 337 335 333 334 332 327 325 323 323 324 322 318 311 304 302 295 287 280 278 275 272 268 266 266 265 264 262 263 261 258 256 256 256
341 343 339 339 339 338 338 339 339 338 336 333 333 333 332 329 326 326 323 321 321 317 312 310 307 300 293 286 281 278 273 273 272 270 268 266 264 263 262 258 258 257 256
334 336 335 332 330 330 333 333 334 334 333 333 331 331 331 330 329 327 325 322 320 317 313 312 312 309 301 291 285 282 280 277 275 273 271 268 266 267 263 261 260 258 257
326 327 329 327 325 324 327 329 329 329 330 332 332 331 331 331 331 329 327 325 323 319 316 316 318 312 306 300 289 281 283 280 278 276 274 270 268 270 267 262 261 259 257
318 320 325 324 323 321 321 324 327 327 327 327 328 329 329 329 328 329 327 325 322 320 318 318 317 313 305 300 292 287 284 284 280 278 276 273 269 271 268 264 263 262 259
314 317 322 321 319 316 316 321 323 324 324 323 325 327 326 326 326 325 325 323 321 320 318 318 318 315 309 302 294 292 287 284 282 279 279 276 273 270 270 267 264 262 261
309 313 318 317 314 312 314 317 321 322 321 320 321 324 324 323 323 323 322 322 322 320 318 318 317 314 310 307 299 295 291 288 285 281 283 281 276 273 270 268 267 265 263
305 310 312 313 312 310 311 313 317 318 320 318 316 317 320 321 322 321 319 320 320 320 318 318 317 314 309 308 303 299 298 294 290 287 284 280 277 275 270 266 265 264 263
299 306 309 308 309 309 311 313 314 314 316 317 316 316 316 318 319 320 321 322 321 320 319 318 316 315 311 309 305 300 299 297 293 289 285 280 278 275 273 268 266 265 263
293 299 306 307 307 308 309 309 310 310 310 312 313 314 315 316 317 319 320 322 323 321 321 320 316 314 314 310 307 305 304 301 296 291 288 282 279 277 275 272 270 268 268
289 294 301 302 304 305 307 306 309 310 311 312 311 312 314 317 318 318 317 316 318 319 321 320 317 315 313 312 308 304 304 301 296 290 286 283 282 279 275 274 272 271 271
288 291 296 298 298 300 303 304 306 306 309 312 309 310 312 314 317 318 317 317 315 314 315 316 316 314 310 309 309 307 306 303 296 291 286 282 283 281 278 275 274 274 273
285 285 289 292 293 295 299 302 304 304 305 309 308 308 309 310 312 314 315 315 314 311 309 311 311 311 310 308 307 305 306 303 299 294 289 283 282 280 278 276 274 274 273
283 282 283 284 287 290 293 298 301 301 302 304 304 307 309 309 310 311 313 314 313 312 309 308 309 311 310 309 307 304 304 303 301 297 288 286 284 279 276 275 274 274 273
280 281 282 283 284 286 289 293 296 297 300 301 302 304 306 306 308 309 310 310 311 311 309 308 308 309 308 306 305 303 302 301 300 299 293 288 284 280 278 276 275 275 273
279 280 281 282 283 285 288 290 293 294 297 299 301 302 303 303 304 306 307 308 309 308 308 308 306 306 306 305 304 303 302 300 299 298 295 290 287 283 280 278 276 276 275
278 278 280 282 285 286 287 288 291 292 293 295 298 300 301 301 302 303 305 306 307 308 309 307 307 305 303 302 302 302 302 299 298 296 294 290 289 287 284 282 279 276 274
277 278 280 281 283 285 287 288 290 291 292 293 294 296 298 300 301 302 303 306 306 306 307 307 307 307 304 301 300 302 301 299 297 296 294 292 290 287 283 282 280 279 277
276 278 280 281 281 284 286 286 288 289 290 291 292 293 296 298 299 300 301 303 305 305 305 305 307 307 307 304 301 303 303 299 296 295 294 293 290 287 286 284 281 280 279
275 277 278 280 282 284 285 285 286 287 289 290 291 292 294 296 297 298 299 300 302 302 303 305 306 307 306 304 302 303 303 299 296 295 293 292 291 289 288 286 283 281 279
273 275 276 279 282 284 285 285 286 287 287 287 288 289 291 294 295 297 298 299 300 302 303 305 306 305 305 305 305 305 304 301 297 295 294 292 291 290 288 287 285 283 281
273 276 278 279 281 282 284 286 287 287 286 286 287 287 289 292 294 296 298 299 300 302 303 303 304 304 304 303 306 307 307 303 299 296 296 295 292 290 288 286 285 283 281
276 277 277 279 281 282 284 285 285 284 284 285 286 287 289 291 293 295 297 298 298 300 301 301 300 301 302 304 307 307 306 305 301 297 297 297 295 291 288 286 286 284 281
276 276 277 279 281 282 283 284 283 283 283 284 286 288 289 290 292 294 296 297 297 298 299 300 300 301 303 305 305 305 304 303 301 299 298 297 296 293 290 288 286 284 281
Height
5904 5903 5901 5900 5899 5897 5895 5894 5892 5890 5889 5888 5886 5885 5883 5882 5880 5879 5877 5876 5875 5873 5872 5871 5870 5869 5868 5867 5866 5866 5866 5866 5866 5866 5866 5866 5866 5866 5867 5867 5868 5868 5869
5904 5902 5901 5899 5898 5896 5895 5893 5891 5890 5888 5887 5885 5884 5882 5881 5879 5877 5876 5874 5873 5871 5870 5869 5867 5866 5865 5864 5864 5863 5863 5862 5862 5862 5863 5862 5863 5862 5863 5863 5864 5864 5865
5903 5902 5900 5899 5897 5895 5894 5892 5891 5889 5888 5886 5885 5883 5881 5879 5878 5876 5874 5873 5871 5869 5868 5866 5865 5863 5862 5862 5861 5860 5859 5859 5859 5859 5859 5859 5859 5858 5859 5859 5859 5860 5860
5903 5901 5900 5898 5896 5895 5893 5892 5890 5889 5887 5885 5884 5882 5880 5878 5876 5874 5872 5871 5869 5867 5865 5864 5862 5860 5859 5858 5858 5857 5856 5855 5855 5854 5854 5854 5854 5854 5854 5855 5855 5855 5856
5902 5900 5899 5897 5896 5894 5892 5891 5889 5887 5886 5884 5882 5880 5879 5877 5874 5872 5870 5868 5866 5864 5863 5861 5860 5858 5856 5855 5854 5853 5853 5852 5851 5850 5850 5850 5850 5849 5850 5850 5850 5850 5851
5901 5899 5898 5896 5895 5893 5891 5890 5888 5886 5884 5882 5881 5879 5877 5875 5872 5870 5868 5866 5864 5862 5860 5859 5857 5855 5853 5852 5851 5850 5849 5848 5847 5846 5846 5845 5845 5845 5845 5845 5845 5845 5846
5900 5898 5896 5895 5893 5891 5890 5888 5886 5885 5883 5881 5879 5877 5875 5873 5871 5868 5866 5864 5862 5860 5858 5856 5854 5852 5850 5848 5847 5846 5845 5844 5843 5842 5841 5840 5840 5840 5839 5839 5840 5840 5841
5898 5896 5895 5893 5892 5890 5888 5887 5885 5883 5881 5879 5877 5875 5873 5871 5869 5866 5864 5862 5859 5857 5855 5853 5851 5849 5847 5845 5843 5842 5841 5839 5838 5838 5837 5835 5835 5835 5834 5834 5835 5835 5835
5896 5895 5893 5891 5890 5888 5887 5885 5883 5881 5879 5877 5876 5874 5871 5869 5866 5864 5862 5860 5857 5855 5853 5850 5848 5846 5844 5842 5840 5839 5837 5835 5834 5833 5832 5831 5830 5829 5829 5829 5829 5830 5830
5894 5892 5891 5889 5888 5887 5885 5883 5881 5879 5877 5875 5873 5871 5869 5867 5864 5862 5859 5857 5855 5852 5850 5847 5845 5843 5840 5838 5836 5835 5833 5831 5830 5828 5827 5826 5825 5825 5824 5824 5824 5824 5824
5892 5890 5889 5887 5886 5884 5883 5881 5879 5877 5875 5873 5871 5869 5866 5864 5862 5859 5857 5855 5852 5850 5847 5845 5842 5840 5837 5835 5833 5831 5829 5827 5825 5824 5822 5821 5821 5820 5819 5819 5819 5819 5819
5889 5888 5886 5885 5884 5882 5880 5879 5876 5874 5872 5870 5868 5866 5864 5861 5859 5857 5855 5852 5850 5847 5844 5842 5839 5836 5834 5831 5829 5827 5825 5823 5821 5819 5818 5817 5816 5815 5815 5814 5814 5814 5814
5886 5885 5884 5882 5881 5879 5878 5876 5874 5872 5870 5868 5866 5863 5861 5858 5856 5854 5852 5849 5847 5844 5841 5838 5836 5833 5831 5828 5825 5823 5820 5818 5817 5815 5813 5812 5811 5810 5810 5809 5809 5809 5809
5883 5882 5880 5879 5878 5876 5875 5873 5871 5869 5867 5865 5863 5860 5858 5856 5853 5851 5848 5846 5843 5841 5838 5835 5832 5829 5827 5824 5821 5819 5816 5814 5812 5810 5808 5807 5806 5805 5804 5804 5804 5803 5803
5879 5878 5877 5876 5875 5873 5871 5870 5867 5866 5864 5862 5859 5857 5855 5852 5850 5847 5845 5842 5840 5837 5834 5831 5828 5825 5823 5820 5817 5815 5812 5810 5807 5805 5803 5802 5801 5800 5799 5799 5798 5798 5797
5875 5874 5873 5872 5871 5869 5868 5866 5864 5862 5860 5858 5856 5853 5851 5848 5846 5843 5841 5838 5836 5833 5830 5828 5824 5821 5818 5816 5813 5810 5807 5805 5802 5800 5798 5796 5795 5794 5793 5792 5792 5792 5791
5871 5870 5869 5868 5867 5865 5864 5862 5860 5858 5856 5854 5851 5849 5846 5844 5842 5839 5837 5834 5832 5829 5826 5823 5820 5817 5814 5811 5808 5805 5802 5800 5797 5795 5792 5791 5789 5788 5787 5786 5785 5785 5784
5865 5865 5864 5863 5862 5860 5859 5857 5856 5854 5852 5848 5846 5844 5842 5839 5837 5835 5832 5830 5827 5824 5821 5818 5815 5812 5809 5806 5803 5799 5797 5794 5792 5789 5787 5785 5783 5782 5781 5780 5779 5778 5778
5860 5859 5858 5857 5856 5855 5854 5852 5850 5848 5846 5844 5842 5839 5837 5834 5832 5830 5827 5825 5822 5819 5816 5812 5809 5806 5803 5800 5797 5794 5791 5788 5786 5783 5781 5779 5777 5776 5774 5773 5772 5771 5770
5854 5854 5853 5852 5851 5849 5848 5846 5845 5843 5840 5838 5836 5834 5831 5829 5827 5824 5822 5819 5816 5813 5810 5807 5804 5800 5797 5794 5791 5788 5785 5782 5779 5777 5774 5772 5771 5769 5767 5766 5765 5764 5763
5848 5848 5847 5846 5845 5844 5842 5840 5839 5837 5834 5832 5830 5828 5826 5823 5821 5819 5816 5814 5811 5808 5804 5801 5798 5794 5791 5788 5785 5782 5779 5776 5773 5770 5768 5766 5764 5762 5761 5759 5758 5757 5756
5842 5841 5840 5839 5838 5837 5836 5834 5832 5830 5828 5826 5824 5821 5820 5817 5815 5813 5810 5807 5804 5801 5798 5795 5791 5788 5784 5781 5778 5775 5772 5769 5766 5763 5761 5759 5757 5755 5754 5752 5751 5749 5748
5835 5834 5833 5832 5831 5830 5829 5827 5825 5823 5821 5819 5817 5815 5813 5811 5808 5806 5803 5800 5797 5794 5791 5788 5784 5781 5777 5774 5771 5768 5764 5762 5759 5756 5754 5752 5750 5748 5747 5745 5743 5742 5741
5828 5827 5826 5825 5824 5823 5821 5820 5818 5816 5814 5812 5810 5808 5806 5804 5801 5799 5796 5793 5790 5787 5784 5781 5777 5773 5770 5767 5764 5761 5757 5755 5752 5749 5747 5745 5742 5741 5739 5738 5736 5735 5733
5820 5819 5819 5818 5816 5815 5814 5812 5810 5808 5806 5805 5803 5801 5799 5797 5794 5791 5788 5785 5783 5780 5777 5773 5770 5766 5763 5760 5757 5754 5751 5748 5745 5742 5740 5738 5735 5733 5731 5730 5728 5727 5725
5812 5812 5811 5810 5808 5807 5806 5804 5802 5801 5799 5797 5795 5793 5791 5789 5786 5783 5781 5777 5775 5772 5769 5766 5762 5759 5756 5753 5750 5747 5744 5740 5738 5735 5732 5730 5728 5726 5724 5722 5720 5719 5717